Williamsport, PA

3:09 AM EDT on August 20, 2017 (GMT -0400)
Williamsport Rgnl

Weather History for KIPT - December, 2012

Change the Weather History Date:

Sunday, December 9, 2012

  Actual Average Record
Temperature  
Mean Temperature 40 °F 33 °F  
Max Temperature 44 °F 40 °F 61 °F (1966)
Min Temperature 36 °F 26 °F 3 °F (2002)
Degree Days  
Heating Degree Days 25 32  
Month to date heating degree days 201 274  
Since 1 July heating degree days 1381 1519  
Cooling Degree Days 0 0  
Month to date cooling degree days 0 0  
Year to date cooling degree days 951 702  
Moisture  
Dew Point 36 °F    
Average Humidity 85    
Maximum Humidity 100    
Minimum Humidity 70    
Precipitation  
Precipitation 0.11 in 0.12 in 1.42 in (1973)
Month to date precipitation 0.99 1.03  
Year to date precipitation 31.62 39.38  
Snow  
Snow 0.00 in 0.20 in 8.50 in (1917)
Month to date snowfall 0.0 1.6  
Since 1 July snowfall 1.8 3.4  
Snow Depth 0.00 in    
Sea Level Pressure  
Sea Level Pressure 30.13 in    
Wind  
Wind Speed 4 mph (NE)    
Max Wind Speed 14 mph    
Max Gust Speed 21 mph    
Visibility 7 miles    
Events Fog , Rain    
T = Trace of Precipitation, MM = Missing Value Source: NWS Daily Summary

Daily Weather History Graph

Daily Weather History Graph

Search for Another Location

Airport or City:

Trip Planner

Search our weather history database for the weather conditions in past years. The results will help you decide how hot, cold, wet, or windy it might be!

Date:

Astronomy

Dec. 09, 2012 Rise Set
Actual Time 7:21 AM EST 4:38 PM EST
Civil Twilight 6:50 AM EST 5:09 PM EST
Nautical Twilight 6:16 AM EST 5:44 PM EST
Astronomical Twilight 5:42 AM EST 6:17 PM EST
Moon 2:50 AM EST (12/9) 1:45 PM EST (12/9)
Length of Visible Light 10h 18m
Length of Day
9h 16m
Waning Crescent, 19% of the Moon is Illuminated
Dec 9
Waning Crescent
Dec 13
New
Dec 20
First Quarter
Dec 28
Full
Jan 4
Last Quarter

Hourly Weather History & Observations

Time (EST) Temp. Windchill Dew Point Humidity Pressure Visibility Wind Dir Wind Speed Gust Speed Precip Events Conditions
12:52 AM 42.8 °F 41.1 °F 42.8 °F 100% 30.07 in 0.2 mi WSW 3.5 mph - N/A Fog Fog
12:54 AM 43.0 °F 40.3 °F 42.1 °F 97% 30.08 in 0.2 mi West 4.6 mph - N/A Fog Fog
1:54 AM 43.0 °F - 42.1 °F 97% 30.10 in 0.5 mi Calm Calm - N/A Fog Fog
2:08 AM 42.8 °F - 42.8 °F 100% 30.10 in 0.2 mi Calm Calm - N/A Fog Fog
2:54 AM 41.0 °F 39.0 °F 39.9 °F 96% 30.13 in 0.2 mi WNW 3.5 mph - N/A Fog Fog
3:05 AM 41.0 °F 38.0 °F 39.2 °F 93% 30.12 in 0.5 mi WNW 4.6 mph - N/A Fog Fog
3:29 AM 42.8 °F - 41.0 °F 93% 30.13 in 1.8 mi Calm Calm - N/A   Overcast
3:40 AM 42.8 °F 40.1 °F 41.0 °F 93% 30.13 in 2.0 mi West 4.6 mph - N/A   Mostly Cloudy
3:49 AM 41.0 °F 38.0 °F 39.2 °F 93% 30.13 in 8.0 mi West 4.6 mph - N/A   Mostly Cloudy
3:54 AM 39.9 °F 36.7 °F 39.0 °F 97% 30.14 in 8.0 mi West 4.6 mph - N/A   Mostly Cloudy
4:39 AM 41.0 °F - 35.6 °F 81% 30.14 in 10.0 mi Calm Calm - N/A   Partly Cloudy
4:54 AM 39.9 °F 37.8 °F 35.1 °F 83% 30.17 in 10.0 mi Variable 3.5 mph - N/A   Scattered Clouds
5:18 AM 39.2 °F 37.0 °F 33.8 °F 81% 30.17 in 10.0 mi NW 3.5 mph - N/A   Mostly Cloudy
5:54 AM 39.9 °F - 34.0 °F 79% 30.21 in 10.0 mi Calm Calm - N/A   Overcast
6:29 AM 39.2 °F 33.6 °F 32.0 °F 75% 30.21 in 10.0 mi NNE 8.1 mph - N/A   Scattered Clouds
6:54 AM 39.9 °F 33.9 °F 30.9 °F 70% 30.22 in 10.0 mi NNE 9.2 mph - N/A   Scattered Clouds
7:54 AM 37.0 °F - 32.0 °F 82% 30.24 in 10.0 mi Calm Calm - N/A   Clear
8:54 AM 37.9 °F - 32.0 °F 79% 30.25 in 10.0 mi Calm Calm - N/A   Clear
9:54 AM 39.0 °F 36.8 °F 30.0 °F 70% 30.26 in 10.0 mi ESE 3.5 mph - N/A   Mostly Cloudy
10:54 AM 39.9 °F - 30.0 °F 68% 30.25 in 10.0 mi Calm Calm - N/A   Overcast
11:54 AM 39.9 °F - 30.0 °F 68% 30.22 in 10.0 mi Calm Calm - N/A   Overcast
12:54 PM 39.9 °F - 30.0 °F 68% 30.20 in 10.0 mi Calm Calm - 0.00 in Rain Light Rain
1:54 PM 41.0 °F - 30.9 °F 67% 30.18 in 10.0 mi Calm Calm - 0.00 in   Overcast
2:02 PM 41.0 °F - 30.2 °F 65% 30.16 in 10.0 mi Calm Calm - N/A   Overcast
2:26 PM 41.0 °F 39.0 °F 30.2 °F 65% 30.15 in 10.0 mi East 3.5 mph - N/A   Overcast
2:54 PM 41.0 °F 38.0 °F 32.0 °F 70% 30.17 in 10.0 mi East 4.6 mph - N/A   Overcast
3:05 PM 41.0 °F 38.0 °F 32.0 °F 70% 30.15 in 10.0 mi East 4.6 mph - N/A   Overcast
3:54 PM 39.0 °F 32.8 °F 35.1 °F 86% 30.15 in 10.0 mi ENE 9.2 mph - 0.00 in Rain Light Rain
4:15 PM 39.2 °F 31.6 °F 35.6 °F 87% 30.13 in 10.0 mi ENE 12.7 mph - 0.00 in   Overcast
4:54 PM 39.0 °F 33.4 °F 36.0 °F 89% 30.13 in 7.0 mi ENE 8.1 mph - 0.00 in   Overcast
5:54 PM 39.0 °F 34.8 °F 37.0 °F 93% 30.12 in 5.0 mi NE 5.8 mph - 0.00 in   Drizzle
6:54 PM 39.9 °F 32.5 °F 37.0 °F 89% 30.09 in 5.0 mi NE 12.7 mph 18.4 mph 0.01 in Rain Rain
7:54 PM 39.9 °F 32.9 °F 37.0 °F 89% 30.07 in 8.0 mi ENE 11.5 mph - 0.06 in Rain Light Rain
8:54 PM 39.9 °F 35.1 °F 37.0 °F 89% 30.06 in 8.0 mi Variable 6.9 mph 17.3 mph 0.01 in Rain Light Rain
9:22 PM 41.0 °F 35.8 °F 37.4 °F 87% 30.02 in 7.0 mi East 8.1 mph - 0.02 in Rain Light Rain
9:30 PM 41.0 °F 35.2 °F 37.4 °F 87% 30.01 in 8.0 mi East 9.2 mph - 0.02 in Rain Light Rain
9:54 PM 41.0 °F 37.1 °F 37.9 °F 89% 30.02 in 10.0 mi Variable 5.8 mph - 0.02 in   Overcast
10:12 PM 41.0 °F 34.7 °F 37.4 °F 87% 30.00 in 10.0 mi NE 10.4 mph - N/A   Overcast
10:32 PM 41.0 °F 37.1 °F 37.4 °F 87% 29.99 in 10.0 mi East 5.8 mph - N/A   Overcast
10:54 PM 41.0 °F 37.1 °F 37.9 °F 89% 29.99 in 10.0 mi ENE 5.8 mph - N/A   Overcast
11:54 PM 41.0 °F 37.1 °F 37.9 °F 89% 29.97 in 10.0 mi Variable 5.8 mph - 0.01 in   Overcast